Location: Trani
(41.2830°N, 16.4170°E)
Time: 13:19:49
(UTC+01:00)

ISS - Visible Passes

Search period start: 24 January 2019 00:00
Search period end: 03 February 2019 00:00
Orbit: 404 x 410 km, 51.6° (Epoch: 24 January)

Date Brightness Start Highest point End Pass type
(mag) Time Alt. Az. Time Alt. Az. Time Alt. Az.
24 Jan -3.5 17:46:16 10° SW 17:49:28 51° SE 17:52:03 15° ENE visible
24 Jan -1.2 19:23:20 10° W 19:24:47 19° WNW 19:24:47 19° WNW visible
25 Jan -2.7 18:31:33 10° W 18:34:39 37° NNW 18:35:41 29° NNE visible
26 Jan -3.5 17:39:56 10° WSW 17:43:12 63° NNW 17:46:30 10° NE visible
26 Jan -1.1 19:17:56 10° WNW 19:19:14 15° NW 19:19:14 15° NW visible
27 Jan -1.9 18:25:58 10° WNW 18:28:38 22° NNW 18:30:00 17° NNE visible
28 Jan -2.4 17:34:04 10° W 17:37:03 31° NNW 17:40:03 10° NE visible
28 Jan -1.0 19:12:29 10° NW 19:13:26 13° NNW 19:13:26 13° NNW visible
29 Jan -1.5 18:20:30 10° NW 18:22:40 16° NNW 18:24:07 13° NNE visible
30 Jan -1.1 19:06:40 10° NNW 19:07:30 13° NNW 19:07:30 13° NNW visible
31 Jan -1.4 18:14:55 10° NW 18:16:44 14° N 18:18:09 11° NNE visible
01 Feb -1.3 19:00:21 10° NNW 19:01:32 14° N 19:01:32 14° N visible
02 Feb -1.5 18:08:53 10° NNW 18:10:45 14° N 18:12:12 12° NNE visible
